Time,TemperatureF,DewpointF,PressureIn,WindDirection,WindDirectionDegrees,WindSpeedMPH,WindSpeedGustMPH,Humidity,HourlyPrecipIn,Conditions,Clouds,dailyrainin,SoftwareType,DateUTC
2013-05-02 00:00:00,62.3,18.2,29.61,West,259,4.0,5.0,18,0.00,,,0.00,Wunderground v.1.15,2013-05-02 07:00:00,
2013-05-02 00:10:00,62.6,18.4,29.61,WSW,255,4.0,4.0,18,0.00,,,0.00,Wunderground v.1.15,2013-05-02 07:10:00,
2013-05-02 00:15:00,62.7,18.5,29.61,West,269,3.0,5.0,18,0.00,,,0.00,Wunderground v.1.15,2013-05-02 07:15:00,
2013-05-02 00:20:00,62.7,18.5,29.61,West,281,2.0,2.0,18,0.00,,,0.00,Wunderground v.1.15,2013-05-02 07:20:00,
2013-05-02 00:25:00,62.4,18.3,29.61,West,280,1.0,5.0,18,0.00,,,0.00,Wunderground v.1.15,2013-05-02 07:25:00,
2013-05-02 00:30:00,62.2,18.1,29.61,West,280,0.0,5.0,18,0.00,,,0.00,Wunderground v.1.15,2013-05-02 07:30:00,
2013-05-02 00:40:00,61.2,18.6,29.61,WSW,246,0.0,5.0,19,0.00,,,0.00,Wunderground v.1.15,2013-05-02 07:40:00,
2013-05-02 00:45:00,61.1,18.5,29.61,WSW,248,1.0,5.0,19,0.00,,,0.00,Wunderground v.1.15,2013-05-02 07:45:00,
2013-05-02 00:50:00,61.0,17.1,29.61,SW,234,1.0,5.0,18,0.00,,,0.00,Wunderground v.1.15,2013-05-02 07:50:00,
2013-05-02 00:55:00,59.4,17.1,29.61,SSW,205,2.0,5.0,19,0.00,,,0.00,Wunderground v.1.15,2013-05-02 07:55:00,
2013-05-02 01:00:00,58.8,17.8,29.61,SSW,202,4.0,6.0,20,0.00,,,0.00,Wunderground v.1.15,2013-05-02 08:00:00,
2013-05-02 01:10:00,58.2,17.3,29.61,SSW,199,6.0,7.0,20,0.00,,,0.00,Wunderground v.1.15,2013-05-02 08:10:00,
2013-05-02 01:20:00,58.5,17.5,29.61,SSW,209,5.0,6.0,20,0.00,,,0.00,Wunderground v.1.15,2013-05-02 08:20:00,
2013-05-02 01:25:00,59.2,18.1,29.61,SSW,211,5.0,6.0,20,0.00,,,0.00,Wunderground v.1.15,2013-05-02 08:25:00,
2013-05-02 01:30:00,59.1,18.0,29.61,SSW,204,5.0,5.0,20,0.00,,,0.00,Wunderground v.1.15,2013-05-02 08:30:00,
2013-05-02 01:35:00,59.3,18.2,29.61,SW,225,4.0,6.0,20,0.00,,,0.00,Wunderground v.1.15,2013-05-02 08:35:00,
2013-05-02 01:40:00,59.8,18.6,29.61,SW,220,3.0,6.0,20,0.00,,,0.00,Wunderground v.1.15,2013-05-02 08:40:00,
2013-05-02 01:50:00,59.1,18.0,29.61,SSW,210,2.0,2.0,20,0.00,,,0.00,Wunderground v.1.15,2013-05-02 08:50:00,
2013-05-02 01:55:00,57.6,16.8,29.61,SSW,210,1.0,6.0,20,0.00,,,0.00,Wunderground v.1.15,2013-05-02 08:55:00,
2013-05-02 02:00:00,56.4,18.0,29.61,SSW,210,0.0,0.0,22,0.00,,,0.00,Wunderground v.1.15,2013-05-02 09:00:00,
2013-05-02 02:10:00,55.5,18.2,29.61,SSW,210,0.0,0.0,23,0.00,,,0.00,Wunderground v.1.15,2013-05-02 09:10:00,
2013-05-02 02:15:00,54.8,16.6,29.61,SSW,210,0.0,0.0,22,0.00,,,0.00,Wunderground v.1.15,2013-05-02 09:15:00,
2013-05-02 02:20:00,53.5,17.5,29.61,SSW,205,1.0,4.0,24,0.00,,,0.00,Wunderground v.1.15,2013-05-02 09:20:00,
2013-05-02 02:30:00,53.4,18.4,29.61,WSW,250,1.0,1.0,25,0.00,,,0.00,Wunderground v.1.15,2013-05-02 09:30:00,
2013-05-02 02:35:00,52.4,16.6,29.61,NNE,30,1.0,1.0,24,0.00,,,0.00,Wunderground v.1.15,2013-05-02 09:35:00,
2013-05-02 02:40:00,51.2,16.5,29.61,NNE,30,1.0,1.0,25,0.00,,,0.00,Wunderground v.1.15,2013-05-02 09:40:00,
2013-05-02 02:45:00,51.0,16.4,29.61,NNE,30,0.0,1.0,25,0.00,,,0.00,Wunderground v.1.15,2013-05-02 09:45:00,
2013-05-02 02:50:00,51.2,17.4,29.61,East,83,0.0,0.0,26,0.00,,,0.00,Wunderground v.1.15,2013-05-02 09:50:00,
2013-05-02 03:00:00,52.3,18.4,29.61,East,101,0.0,1.0,26,0.00,,,0.00,Wunderground v.1.15,2013-05-02 10:00:00,
2013-05-02 03:10:00,52.9,18.0,29.61,East,101,0.0,1.0,25,0.00,,,0.00,Wunderground v.1.15,2013-05-02 10:10:00,
2013-05-02 03:15:00,52.3,17.5,29.61,East,101,0.0,1.0,25,0.00,,,0.00,Wunderground v.1.15,2013-05-02 10:15:00,
2013-05-02 03:20:00,51.9,17.1,29.61,East,101,0.0,1.0,25,0.00,,,0.00,Wunderground v.1.15,2013-05-02 10:20:00,
2013-05-02 03:25:00,51.6,17.8,29.61,East,101,0.0,1.0,26,0.00,,,0.00,Wunderground v.1.15,2013-05-02 10:25:00,
2013-05-02 03:35:00,51.3,18.4,29.61,East,101,0.0,1.0,27,0.00,,,0.00,Wunderground v.1.15,2013-05-02 10:35:00,
2013-05-02 03:40:00,51.1,18.2,29.61,East,101,0.0,1.0,27,0.00,,,0.00,Wunderground v.1.15,2013-05-02 10:40:00,
2013-05-02 03:45:00,51.2,17.4,29.61,ESE,102,0.0,1.0,26,0.00,,,0.00,Wunderground v.1.15,2013-05-02 10:45:00,
2013-05-02 03:50:00,50.4,16.8,29.61,SE,126,0.0,1.0,26,0.00,,,0.00,Wunderground v.1.15,2013-05-02 10:50:00,
2013-05-02 04:00:00,50.1,17.4,29.61,South,180,1.0,1.0,27,0.00,,,0.00,Wunderground v.1.15,2013-05-02 11:00:00,
2013-05-02 04:10:00,49.7,17.9,29.61,SSW,194,3.0,7.0,28,0.00,,,0.00,Wunderground v.1.15,2013-05-02 11:10:00,
2013-05-02 04:15:00,50.1,18.2,29.61,South,190,5.0,7.0,28,0.00,,,0.00,Wunderground v.1.15,2013-05-02 11:15:00,
2013-05-02 04:20:00,50.6,18.6,29.61,South,188,6.0,6.0,28,0.00,,,0.00,Wunderground v.1.15,2013-05-02 11:20:00,
2013-05-02 04:25:00,50.9,18.9,29.61,NNW,343,3.0,6.0,28,0.00,,,0.00,Wunderground v.1.15,2013-05-02 11:25:00,
2013-05-02 04:30:00,50.6,23.9,29.61,NNW,343,0.0,2.0,35,0.00,,,0.00,Wunderground v.1.15,2013-05-02 11:30:00,
2013-05-02 04:35:00,50.3,20.8,29.61,NNW,331,0.0,2.0,31,0.00,,,0.00,Wunderground v.1.15,2013-05-02 11:35:00,
2013-05-02 04:45:00,51.4,20.2,29.61,NNW,331,0.0,2.0,29,0.00,,,0.00,Wunderground v.1.15,2013-05-02 11:45:00,
2013-05-02 04:50:00,52.2,20.0,29.61,NNW,331,0.0,2.0,28,0.00,,,0.00,Wunderground v.1.15,2013-05-02 11:50:00,
2013-05-02 04:55:00,52.6,18.6,29.61,NNW,331,0.0,2.0,26,0.00,,,0.00,Wunderground v.1.15,2013-05-02 11:55:00,
2013-05-02 05:00:00,52.5,18.6,29.61,NW,319,0.0,0.0,26,0.00,,,0.00,Wunderground v.1.15,2013-05-02 12:00:00,
2013-05-02 05:10:00,51.3,18.4,29.61,NW,319,0.0,0.0,27,0.00,,,0.00,Wunderground v.1.15,2013-05-02 12:10:00,
2013-05-02 05:15:00,50.6,18.6,29.61,NW,319,0.0,0.0,28,0.00,,,0.00,Wunderground v.1.15,2013-05-02 12:15:00,
2013-05-02 05:25:00,50.0,18.1,29.61,WSW,238,0.0,0.0,28,0.00,,,0.00,Wunderground v.1.15,2013-05-02 12:25:00,
2013-05-02 05:30:00,49.2,17.4,29.61,SW,225,0.0,0.0,28,0.00,,,0.00,Wunderground v.1.15,2013-05-02 12:30:00,
2013-05-02 05:35:00,48.5,17.6,29.61,SW,225,0.0,0.0,29,0.00,,,0.00,Wunderground v.1.15,2013-05-02 12:35:00,
2013-05-02 05:45:00,47.8,17.8,29.61,SW,225,0.0,0.0,30,0.00,,,0.00,Wunderground v.1.15,2013-05-02 12:45:00,
2013-05-02 05:50:00,47.8,17.8,29.61,SW,225,0.0,0.0,30,0.00,,,0.00,Wunderground v.1.15,2013-05-02 12:50:00,
2013-05-02 05:55:00,47.7,17.7,29.61,SW,225,0.0,0.0,30,0.00,,,0.00,Wunderground v.1.15,2013-05-02 12:55:00,
2013-05-02 06:00:00,48.0,18.0,29.61,ESE,119,0.0,0.0,30,0.00,,,0.00,Wunderground v.1.15,2013-05-02 13:00:00,
2013-05-02 06:10:00,48.7,17.8,29.61,South,184,0.0,1.0,29,0.00,,,0.00,Wunderground v.1.15,2013-05-02 13:10:00,
2013-05-02 06:15:00,49.0,18.9,29.61,South,186,1.0,1.0,30,0.00,,,0.00,Wunderground v.1.15,2013-05-02 13:15:00,
2013-05-02 06:25:00,51.1,19.9,29.61,SSW,201,3.0,4.0,29,0.00,,,0.00,Wunderground v.1.15,2013-05-02 13:25:00,
2013-05-02 06:30:00,52.8,19.7,29.61,SSW,211,3.0,4.0,27,0.00,,,0.00,Wunderground v.1.15,2013-05-02 13:30:00,
2013-05-02 06:35:00,55.0,19.8,29.61,SW,221,3.0,5.0,25,0.00,,,0.00,Wunderground v.1.15,2013-05-02 13:35:00,
2013-05-02 06:40:00,57.0,18.5,29.61,SW,227,5.0,5.0,22,0.00,,,0.00,Wunderground v.1.15,2013-05-02 13:40:00,
2013-05-02 06:45:00,58.4,18.6,29.61,WSW,244,4.0,5.0,21,0.00,,,0.00,Wunderground v.1.15,2013-05-02 13:45:00,
2013-05-02 06:55:00,60.4,17.9,29.61,WSW,239,4.0,4.0,19,0.00,,,0.00,Wunderground v.1.15,2013-05-02 13:55:00,
2013-05-02 07:00:00,61.4,17.5,29.61,West,277,4.0,4.0,18,0.00,,,0.00,Wunderground v.1.15,2013-05-02 14:00:00,
2013-05-02 07:10:00,62.6,15.7,29.61,WNW,294,3.0,3.0,16,0.00,,,0.00,Wunderground v.1.15,2013-05-02 14:10:00,
2013-05-02 07:15:00,63.2,22.6,29.61,NW,323,2.0,6.0,21,0.00,,,0.00,Wunderground v.1.15,2013-05-02 14:15:00,
2013-05-02 07:20:00,63.2,16.2,29.61,NW,309,2.0,6.0,16,0.00,,,0.00,Wunderground v.1.15,2013-05-02 14:20:00,
2013-05-02 07:25:00,63.1,13.1,29.61,West,271,2.0,6.0,14,0.00,,,0.00,Wunderground v.1.15,2013-05-02 14:25:00,
2013-05-02 07:35:00,63.5,11.7,29.61,WNW,294,1.0,6.0,13,0.00,,,0.00,Wunderground v.1.15,2013-05-02 14:35:00,
2013-05-02 07:40:00,63.9,12.0,29.61,WSW,242,1.0,6.0,13,0.00,,,0.00,Wunderground v.1.15,2013-05-02 14:40:00,
2013-05-02 07:45:00,64.5,10.7,29.61,NW,308,2.0,6.0,12,0.00,,,0.00,Wunderground v.1.15,2013-05-02 14:45:00,
2013-05-02 07:50:00,65.0,11.1,29.61,North,351,1.0,1.0,12,0.00,,,0.00,Wunderground v.1.15,2013-05-02 14:50:00,
2013-05-02 07:55:00,65.5,9.5,29.61,NNW,331,0.0,6.0,11,0.00,,,0.00,Wunderground v.1.15,2013-05-02 14:55:00,
2013-05-02 08:00:00,65.6,9.6,29.61,NNW,331,0.0,3.0,11,0.00,,,0.00,Wunderground v.1.15,2013-05-02 15:00:00,
2013-05-02 08:10:00,66.4,12.2,29.61,NE,44,2.0,2.0,12,0.00,,,0.00,Wunderground v.1.15,2013-05-02 15:10:00,
2013-05-02 08:15:00,66.6,12.3,29.61,NE,52,3.0,3.0,12,0.00,,,0.00,Wunderground v.1.15,2013-05-02 15:15:00,
2013-05-02 08:20:00,66.7,14.2,29.61,NNE,13,1.0,3.0,13,0.00,,,0.00,Wunderground v.1.15,2013-05-02 15:20:00,
2013-05-02 08:25:00,67.1,14.5,29.61,NNE,14,1.0,3.0,13,0.00,,,0.00,Wunderground v.1.15,2013-05-02 15:25:00,
2013-05-02 08:30:00,67.4,14.8,29.61,NNW,347,2.0,3.0,13,0.00,,,0.00,Wunderground v.1.15,2013-05-02 15:30:00,
2013-05-02 08:35:00,67.6,13.1,29.61,North,11,3.0,8.0,12,0.00,,,0.00,Wunderground v.1.15,2013-05-02 15:35:00,
2013-05-02 08:45:00,67.8,15.1,29.61,NE,51,3.0,5.0,13,0.00,,,0.00,Wunderground v.1.15,2013-05-02 15:45:00,
2013-05-02 08:50:00,68.0,18.6,29.61,North,11,3.0,6.0,15,0.00,,,0.00,Wunderground v.1.15,2013-05-02 15:50:00,
2013-05-02 08:55:00,68.3,18.8,29.61,NNE,28,4.0,6.0,15,0.00,,,0.00,Wunderground v.1.15,2013-05-02 15:55:00,
2013-05-02 09:00:00,69.4,19.7,29.61,ENE,64,6.0,11.0,15,0.00,,,0.00,Wunderground v.1.15,2013-05-02 16:00:00,
2013-05-02 09:10:00,69.7,21.5,29.61,NNE,20,6.0,14.0,16,0.00,,,0.00,Wunderground v.1.15,2013-05-02 16:10:00,
2013-05-02 09:15:00,69.9,21.6,29.61,NNE,19,7.0,14.0,16,0.00,,,0.00,Wunderground v.1.15,2013-05-02 16:15:00,
2013-05-02 09:25:00,70.5,20.6,29.61,NE,50,8.0,11.0,15,0.00,,,0.00,Wunderground v.1.15,2013-05-02 16:25:00,
2013-05-02 09:30:00,70.8,20.8,29.61,North,350,9.0,12.0,15,0.00,,,0.00,Wunderground v.1.15,2013-05-02 16:30:00,
2013-05-02 09:35:00,71.0,17.6,29.61,NE,37,10.0,12.0,13,0.00,,,0.00,Wunderground v.1.15,2013-05-02 16:35:00,
2013-05-02 09:40:00,71.2,19.5,29.61,North,9,10.0,11.0,14,0.00,,,0.00,Wunderground v.1.15,2013-05-02 16:40:00,
2013-05-02 09:50:00,71.7,18.2,29.61,NNE,22,12.0,13.0,13,0.00,,,0.00,Wunderground v.1.15,2013-05-02 16:50:00,
2013-05-02 09:55:00,72.2,18.6,29.61,NE,55,12.0,13.0,13,0.00,,,0.00,Wunderground v.1.15,2013-05-02 16:55:00,
2013-05-02 10:00:00,72.1,18.5,29.61,North,11,12.0,19.0,13,0.00,,,0.00,Wunderground v.1.15,2013-05-02 17:00:00,
2013-05-02 10:10:00,72.4,18.7,29.61,NNE,28,13.0,19.0,13,0.00,,,0.00,Wunderground v.1.15,2013-05-02 17:10:00,
2013-05-02 10:15:00,72.6,18.9,29.61,NE,46,13.0,19.0,13,0.00,,,0.00,Wunderground v.1.15,2013-05-02 17:15:00,
2013-05-02 10:20:00,72.5,18.8,29.61,NE,47,12.0,12.0,13,0.00,,,0.00,Wunderground v.1.15,2013-05-02 17:20:00,
2013-05-02 10:30:00,72.5,18.8,29.61,NE,38,11.0,19.0,13,0.00,,,0.00,Wunderground v.1.15,2013-05-02 17:30:00,
2013-05-02 10:35:00,73.3,19.4,29.61,NNE,14,11.0,19.0,13,0.00,,,0.00,Wunderground v.1.15,2013-05-02 17:35:00,
2013-05-02 10:40:00,72.8,17.2,29.61,North,5,11.0,19.0,12,0.00,,,0.00,Wunderground v.1.15,2013-05-02 17:40:00,
2013-05-02 10:45:00,73.5,21.3,29.61,NNW,348,10.0,19.0,14,0.00,,,0.00,Wunderground v.1.15,2013-05-02 17:45:00,
2013-05-02 10:55:00,74.0,20.0,29.61,NNE,17,10.0,19.0,13,0.00,,,0.00,Wunderground v.1.15,2013-05-02 17:55:00,
2013-05-02 11:00:00,73.5,19.6,29.61,NNE,13,10.0,10.0,13,0.00,,,0.00,Wunderground v.1.15,2013-05-02 18:00:00,
2013-05-02 11:10:00,73.9,19.9,29.61,NE,44,10.0,10.0,13,0.00,,,0.00,Wunderground v.1.15,2013-05-02 18:10:00,
2013-05-02 11:15:00,74.1,20.1,29.61,NNE,31,11.0,11.0,13,0.00,,,0.00,Wunderground v.1.15,2013-05-02 18:15:00,
2013-05-02 11:20:00,74.8,18.7,29.61,NE,38,10.0,16.0,12,0.00,,,0.00,Wunderground v.1.15,2013-05-02 18:20:00,
2013-05-02 11:30:00,75.0,16.9,29.61,ENE,68,11.0,11.0,11,0.00,,,0.00,Wunderground v.1.15,2013-05-02 18:30:00,
2013-05-02 11:35:00,75.4,17.2,29.61,NNE,31,11.0,16.0,11,0.00,,,0.00,Wunderground v.1.15,2013-05-02 18:35:00,
2013-05-02 11:40:00,75.1,20.9,29.61,North,355,11.0,16.0,13,0.00,,,0.00,Wunderground v.1.15,2013-05-02 18:40:00,
2013-05-02 11:45:00,75.2,17.0,29.61,NE,42,12.0,16.0,11,0.00,,,0.00,Wunderground v.1.15,2013-05-02 18:45:00,
2013-05-02 11:55:00,75.0,20.8,29.61,North,11,9.0,16.0,13,0.00,,,0.00,Wunderground v.1.15,2013-05-02 18:55:00,
2013-05-02 12:00:00,74.8,20.6,29.61,North,5,7.0,14.0,13,0.00,,,0.00,Wunderground v.1.15,2013-05-02 19:00:00,
2013-05-02 12:10:00,74.9,22.5,29.61,NNE,12,7.0,7.0,14,0.00,,,0.00,Wunderground v.1.15,2013-05-02 19:10:00,
2013-05-02 12:15:00,75.1,19.0,29.61,NNW,327,6.0,14.0,12,0.00,,,0.00,Wunderground v.1.15,2013-05-02 19:15:00,
2013-05-02 12:25:00,75.7,19.4,29.61,NE,36,7.0,14.0,12,0.00,,,0.00,Wunderground v.1.15,2013-05-02 19:25:00,
2013-05-02 12:30:00,75.7,19.4,29.61,North,5,6.0,14.0,12,0.00,,,0.00,Wunderground v.1.15,2013-05-02 19:30:00,
2013-05-02 12:40:00,76.0,23.3,29.61,NNW,337,7.0,7.0,14,0.00,,,0.00,Wunderground v.1.15,2013-05-02 19:40:00,
2013-05-02 12:45:00,76.2,21.7,29.61,NNE,18,6.0,9.0,13,0.00,,,0.00,Wunderground v.1.15,2013-05-02 19:45:00,
2013-05-02 12:50:00,76.5,23.7,29.61,NNW,342,7.0,7.0,14,0.00,,,0.00,Wunderground v.1.15,2013-05-02 19:50:00,
2013-05-02 12:55:00,75.7,23.1,29.61,NNW,346,7.0,14.0,14,0.00,,,0.00,Wunderground v.1.15,2013-05-02 19:55:00,
2013-05-02 13:00:00,76.0,19.7,29.61,NE,39,8.0,8.0,12,0.00,,,0.00,Wunderground v.1.15,2013-05-02 20:00:00,
2013-05-02 13:10:00,77.1,20.5,29.61,NNE,30,7.0,17.0,12,0.00,,,0.00,Wunderground v.1.15,2013-05-02 20:10:00,
2013-05-02 13:20:00,76.4,21.9,29.61,NW,318,6.0,6.0,13,0.00,,,0.00,Wunderground v.1.15,2013-05-02 20:20:00,
2013-05-02 13:25:00,76.9,24.0,29.61,NNW,347,7.0,11.0,14,0.00,,,0.00,Wunderground v.1.15,2013-05-02 20:25:00,
2013-05-02 13:30:00,76.7,23.9,29.61,NNW,346,7.0,17.0,14,0.00,,,0.00,Wunderground v.1.15,2013-05-02 20:30:00,
2013-05-02 13:35:00,76.7,20.2,29.61,North,355,9.0,17.0,12,0.00,,,0.00,Wunderground v.1.15,2013-05-02 20:35:00,
2013-05-02 13:45:00,76.6,22.0,29.61,North,360,8.0,17.0,13,0.00,,,0.00,Wunderground v.1.15,2013-05-02 20:45:00,
2013-05-02 13:50:00,76.7,20.2,29.61,NNW,335,7.0,7.0,12,0.00,,,0.00,Wunderground v.1.15,2013-05-02 20:50:00,
2013-05-02 13:55:00,77.3,26.0,29.61,North,349,8.0,10.0,15,0.00,,,0.00,Wunderground v.1.15,2013-05-02 20:55:00,
2013-05-02 14:00:00,77.3,20.7,29.61,NNW,347,8.0,8.0,12,0.00,,,0.00,Wunderground v.1.15,2013-05-02 21:00:00,
2013-05-02 14:10:00,77.1,22.4,29.61,NNW,337,2.0,17.0,13,0.00,,,0.00,Wunderground v.1.15,2013-05-02 21:10:00,
2013-05-02 14:15:00,77.4,20.8,29.61,NNW,348,2.0,17.0,12,0.00,,,0.00,Wunderground v.1.15,2013-05-02 21:15:00,
2013-05-02 14:25:00,77.3,20.7,29.61,WNW,296,3.0,17.0,12,0.00,,,0.00,Wunderground v.1.15,2013-05-02 21:25:00,
2013-05-02 14:30:00,77.4,20.8,29.61,North,355,3.0,17.0,12,0.00,,,0.00,Wunderground v.1.15,2013-05-02 21:30:00,
2013-05-02 14:35:00,78.0,19.2,29.61,ENE,72,6.0,17.0,11,0.00,,,0.00,Wunderground v.1.15,2013-05-02 21:35:00,
2013-05-02 14:40:00,78.1,21.3,29.61,North,9,6.0,6.0,12,0.00,,,0.00,Wunderground v.1.15,2013-05-02 21:40:00,
2013-05-02 14:50:00,78.3,19.4,29.61,WSW,252,2.0,17.0,11,0.00,,,0.00,Wunderground v.1.15,2013-05-02 21:50:00,
2013-05-02 14:55:00,78.0,21.2,29.61,WSW,250,4.0,17.0,12,0.00,,,0.00,Wunderground v.1.15,2013-05-02 21:55:00,
2013-05-02 15:00:00,78.4,21.5,29.61,NNE,24,5.0,10.0,12,0.00,,,0.00,Wunderground v.1.15,2013-05-02 22:00:00,
2013-05-02 15:10:00,78.0,19.2,29.61,NNE,24,5.0,5.0,11,0.00,,,0.00,Wunderground v.1.15,2013-05-02 22:10:00,
2013-05-02 15:15:00,78.0,19.2,29.61,ENE,76,2.0,9.0,11,0.00,,,0.00,Wunderground v.1.15,2013-05-02 22:15:00,
2013-05-02 15:20:00,78.2,19.3,29.61,North,355,2.0,9.0,11,0.00,,,0.00,Wunderground v.1.15,2013-05-02 22:20:00,
2013-05-02 15:30:00,78.3,19.4,29.61,NNE,23,3.0,3.0,11,0.00,,,0.00,Wunderground v.1.15,2013-05-02 22:30:00,
2013-05-02 15:35:00,78.3,19.4,29.61,NNW,343,3.0,9.0,11,0.00,,,0.00,Wunderground v.1.15,2013-05-02 22:35:00,
2013-05-02 15:40:00,78.6,19.7,29.61,NNE,27,3.0,13.0,11,0.00,,,0.00,Wunderground v.1.15,2013-05-02 22:40:00,
2013-05-02 15:45:00,79.0,22.0,29.61,North,360,6.0,13.0,12,0.00,,,0.00,Wunderground v.1.15,2013-05-02 22:45:00,
2013-05-02 15:55:00,78.3,21.5,29.61,North,9,4.0,9.0,12,0.00,,,0.00,Wunderground v.1.15,2013-05-02 22:55:00,
2013-05-02 16:00:00,78.3,19.4,29.61,North,355,3.0,6.0,11,0.00,,,0.00,Wunderground v.1.15,2013-05-02 23:00:00,
2013-05-02 16:10:00,78.0,21.2,29.61,NNE,16,5.0,18.0,12,0.00,,,0.00,Wunderground v.1.15,2013-05-02 23:10:00,
2013-05-02 16:15:00,78.2,19.3,29.61,NNE,13,7.0,18.0,11,0.00,,,0.00,Wunderground v.1.15,2013-05-02 23:15:00,
2013-05-02 16:20:00,78.3,23.4,29.61,NW,323,8.0,8.0,13,0.00,,,0.00,Wunderground v.1.15,2013-05-02 23:20:00,
2013-05-02 16:30:00,77.7,22.9,29.61,NNE,17,12.0,17.0,13,0.00,,,0.00,Wunderground v.1.15,2013-05-02 23:30:00,
2013-05-02 16:35:00,77.1,24.2,29.61,North,350,14.0,17.0,14,0.00,,,0.00,Wunderground v.1.15,2013-05-02 23:35:00,
2013-05-02 16:40:00,77.0,24.1,29.61,NNE,18,13.0,13.0,14,0.00,,,0.00,Wunderground v.1.15,2013-05-02 23:40:00,
2013-05-02 16:45:00,77.0,20.5,29.61,North,355,13.0,13.0,12,0.00,,,0.00,Wunderground v.1.15,2013-05-02 23:45:00,
2013-05-02 16:55:00,76.7,22.1,29.61,North,5,14.0,17.0,13,0.00,,,0.00,Wunderground v.1.15,2013-05-02 23:55:00,
2013-05-02 17:00:00,76.2,21.7,29.61,NNW,342,15.0,15.0,13,0.00,,,0.00,Wunderground v.1.15,2013-05-03 00:00:00,
2013-05-02 17:10:00,76.0,23.3,29.61,NNE,21,14.0,20.0,14,0.00,,,0.00,Wunderground v.1.15,2013-05-03 00:10:00,
2013-05-02 17:15:00,76.2,21.7,29.61,NNE,28,14.0,20.0,13,0.00,,,0.00,Wunderground v.1.15,2013-05-03 00:15:00,
2013-05-02 17:20:00,76.2,23.5,29.61,North,11,14.0,20.0,14,0.00,,,0.00,Wunderground v.1.15,2013-05-03 00:20:00,
2013-05-02 17:25:00,76.1,21.6,29.61,NNE,20,14.0,20.0,13,0.00,,,0.00,Wunderground v.1.15,2013-05-03 00:25:00,
2013-05-02 17:35:00,75.5,19.3,29.61,NNE,24,13.0,20.0,12,0.00,,,0.00,Wunderground v.1.15,2013-05-03 00:35:00,
2013-05-02 17:40:00,75.2,22.7,29.61,NNE,28,13.0,13.0,14,0.00,,,0.00,Wunderground v.1.15,2013-05-03 00:40:00,
2013-05-02 17:45:00,74.9,20.7,29.61,NNE,26,13.0,15.0,13,0.00,,,0.00,Wunderground v.1.15,2013-05-03 00:45:00,
2013-05-02 17:50:00,74.6,23.9,29.61,NNE,19,13.0,20.0,15,0.00,,,0.00,Wunderground v.1.15,2013-05-03 00:50:00,
2013-05-02 18:00:00,73.6,23.1,29.61,NNE,24,13.0,13.0,15,0.00,,,0.00,Wunderground v.1.15,2013-05-03 01:00:00,
2013-05-02 18:10:00,72.9,22.5,29.61,NNE,32,12.0,12.0,15,0.00,,,0.00,Wunderground v.1.15,2013-05-03 01:10:00,
2013-05-02 18:15:00,72.6,22.3,29.61,NNE,28,11.0,18.0,15,0.00,,,0.00,Wunderground v.1.15,2013-05-03 01:15:00,
2013-05-02 18:20:00,72.1,23.4,29.61,NE,36,11.0,11.0,16,0.00,,,0.00,Wunderground v.1.15,2013-05-03 01:20:00,
2013-05-02 18:25:00,71.5,22.9,29.61,NNE,29,11.0,14.0,16,0.00,,,0.00,Wunderground v.1.15,2013-05-03 01:25:00,
2013-05-02 18:30:00,71.1,22.6,29.61,NNE,28,12.0,18.0,16,0.00,,,0.00,Wunderground v.1.15,2013-05-03 01:30:00,
2013-05-02 18:40:00,70.6,20.7,29.61,NE,39,11.0,11.0,15,0.00,,,0.00,Wunderground v.1.15,2013-05-03 01:40:00,
2013-05-02 18:45:00,70.2,21.9,29.61,NE,37,10.0,18.0,16,0.00,,,0.00,Wunderground v.1.15,2013-05-03 01:45:00,
2013-05-02 18:50:00,69.5,22.7,29.61,NE,36,9.0,9.0,17,0.00,,,0.00,Wunderground v.1.15,2013-05-03 01:50:00,
2013-05-02 18:55:00,69.0,22.3,29.61,NNE,28,9.0,10.0,17,0.00,,,0.00,Wunderground v.1.15,2013-05-03 01:55:00,
2013-05-02 19:00:00,68.5,21.9,29.61,NNE,20,10.0,14.0,17,0.00,,,0.00,Wunderground v.1.15,2013-05-03 02:00:00,
2013-05-02 19:10:00,67.5,22.5,29.61,NE,46,8.0,8.0,18,0.00,,,0.00,Wunderground v.1.15,2013-05-03 02:10:00,
2013-05-02 19:20:00,66.2,22.7,29.61,NE,35,5.0,14.0,19,0.00,,,0.00,Wunderground v.1.15,2013-05-03 02:20:00,
2013-05-02 19:25:00,65.2,27.5,29.61,NNE,28,4.0,14.0,24,0.00,,,0.00,Wunderground v.1.15,2013-05-03 02:25:00,
2013-05-02 19:30:00,64.3,24.6,29.61,ENE,67,4.0,14.0,22,0.00,,,0.00,Wunderground v.1.15,2013-05-03 02:30:00,
2013-05-02 19:35:00,64.0,24.4,29.61,NE,46,4.0,14.0,22,0.00,,,0.00,Wunderground v.1.15,2013-05-03 02:35:00,
2013-05-02 19:45:00,64.5,21.3,29.61,NE,55,5.0,14.0,19,0.00,,,0.00,Wunderground v.1.15,2013-05-03 02:45:00,
2013-05-02 19:50:00,65.3,20.7,29.61,ENE,63,7.0,14.0,18,0.00,,,0.00,Wunderground v.1.15,2013-05-03 02:50:00,
2013-05-02 19:55:00,65.5,20.8,29.61,ENE,70,8.0,14.0,18,0.00,,,0.00,Wunderground v.1.15,2013-05-03 02:55:00,
2013-05-02 20:00:00,65.2,20.6,29.61,NE,46,5.0,5.0,18,0.00,,,0.00,Wunderground v.1.15,2013-05-03 03:00:00,
2013-05-02 20:10:00,64.0,22.1,29.61,NE,41,4.0,4.0,20,0.00,,,0.00,Wunderground v.1.15,2013-05-03 03:10:00,
2013-05-02 20:15:00,63.3,22.7,29.61,NE,47,3.0,8.0,21,0.00,,,0.00,Wunderground v.1.15,2013-05-03 03:15:00,
2013-05-02 20:25:00,62.5,22.0,29.61,NE,47,0.0,8.0,21,0.00,,,0.00,Wunderground v.1.15,2013-05-03 03:25:00,
2013-05-02 20:30:00,62.4,20.8,29.61,ENE,62,0.0,8.0,20,0.00,,,0.00,Wunderground v.1.15,2013-05-03 03:30:00,
2013-05-02 20:35:00,62.3,20.7,29.61,NE,48,0.0,8.0,20,0.00,,,0.00,Wunderground v.1.15,2013-05-03 03:35:00,
2013-05-02 20:40:00,62.0,20.4,29.61,NE,49,0.0,8.0,20,0.00,,,0.00,Wunderground v.1.15,2013-05-03 03:40:00,
2013-05-02 20:50:00,61.7,20.2,29.61,NE,47,0.0,8.0,20,0.00,,,0.00,Wunderground v.1.15,2013-05-03 03:50:00,
2013-05-02 20:55:00,61.4,19.9,29.61,NE,40,0.0,8.0,20,0.00,,,0.00,Wunderground v.1.15,2013-05-03 03:55:00,
2013-05-02 21:00:00,61.3,19.8,29.61,NE,50,2.0,6.0,20,0.00,,,0.00,Wunderground v.1.15,2013-05-03 04:00:00,
2013-05-02 21:05:00,61.2,19.8,29.61,NE,45,3.0,6.0,20,0.00,,,0.00,Wunderground v.1.15,2013-05-03 04:05:00,
2013-05-02 21:10:00,60.7,21.6,29.61,NE,38,2.0,2.0,22,0.00,,,0.00,Wunderground v.1.15,2013-05-03 04:10:00,
2013-05-02 21:15:00,60.1,24.1,29.61,NE,47,1.0,6.0,25,0.00,,,0.00,Wunderground v.1.15,2013-05-03 04:15:00,
2013-05-02 21:20:00,59.7,23.8,29.61,NE,47,0.0,6.0,25,0.00,,,0.00,Wunderground v.1.15,2013-05-03 04:20:00,
2013-05-02 21:30:00,59.3,20.4,29.61,NE,42,2.0,6.0,22,0.00,,,0.00,Wunderground v.1.15,2013-05-03 04:30:00,
2013-05-02 21:35:00,59.4,20.5,29.61,NE,38,5.0,6.0,22,0.00,,,0.00,Wunderground v.1.15,2013-05-03 04:35:00,
2013-05-02 21:45:00,58.9,21.1,29.61,NE,49,6.0,6.0,23,0.00,,,0.00,Wunderground v.1.15,2013-05-03 04:45:00,
2013-05-02 21:50:00,58.7,21.0,29.61,NE,53,6.0,6.0,23,0.00,,,0.00,Wunderground v.1.15,2013-05-03 04:50:00,
2013-05-02 21:55:00,58.8,21.0,29.61,NE,51,6.0,6.0,23,0.00,,,0.00,Wunderground v.1.15,2013-05-03 04:55:00,
2013-05-02 22:00:00,58.7,21.0,29.61,NE,46,6.0,6.0,23,0.00,,,0.00,Wunderground v.1.15,2013-05-03 05:00:00,
2013-05-02 22:10:00,58.4,20.7,29.61,NE,53,4.0,4.0,23,0.00,,,0.00,Wunderground v.1.15,2013-05-03 05:10:00,
2013-05-02 22:15:00,58.1,20.4,29.61,NE,53,2.0,7.0,23,0.00,,,0.00,Wunderground v.1.15,2013-05-03 05:15:00,
2013-05-02 22:25:00,57.1,20.6,29.61,East,90,0.0,7.0,24,0.00,,,0.00,Wunderground v.1.15,2013-05-03 05:25:00,
2013-05-02 22:30:00,56.7,20.3,29.61,East,90,0.0,7.0,24,0.00,,,0.00,Wunderground v.1.15,2013-05-03 05:30:00,
2013-05-02 22:35:00,56.4,20.0,29.61,ESE,113,0.0,7.0,24,0.00,,,0.00,Wunderground v.1.15,2013-05-03 05:35:00,
2013-05-02 22:40:00,55.6,20.3,29.61,SE,137,0.0,7.0,25,0.00,,,0.00,Wunderground v.1.15,2013-05-03 05:40:00,
2013-05-02 22:50:00,56.0,21.6,29.61,SE,138,0.0,7.0,26,0.00,,,0.00,Wunderground v.1.15,2013-05-03 05:50:00,
2013-05-02 22:55:00,56.2,21.7,29.61,SE,138,0.0,7.0,26,0.00,,,0.00,Wunderground v.1.15,2013-05-03 05:55:00,
2013-05-02 23:00:00,55.9,20.5,29.61,SE,138,0.0,0.0,25,0.00,,,0.00,Wunderground v.1.15,2013-05-03 06:00:00,
2013-05-02 23:10:00,55.0,20.7,29.61,SE,140,0.0,0.0,26,0.00,,,0.00,Wunderground v.1.15,2013-05-03 06:10:00,
2013-05-02 23:15:00,54.5,20.3,29.61,SSE,150,0.0,0.0,26,0.00,,,0.00,Wunderground v.1.15,2013-05-03 06:15:00,
2013-05-02 23:20:00,54.1,19.9,29.61,SSE,150,0.0,0.0,26,0.00,,,0.00,Wunderground v.1.15,2013-05-03 06:20:00,
2013-05-02 23:30:00,53.5,20.3,29.61,SE,130,0.0,0.0,27,0.00,,,0.00,Wunderground v.1.15,2013-05-03 06:30:00,
2013-05-02 23:35:00,53.4,20.2,29.61,SE,138,1.0,2.0,27,0.00,,,0.00,Wunderground v.1.15,2013-05-03 06:35:00,
2013-05-02 23:40:00,53.3,20.1,29.61,SE,134,1.0,1.0,27,0.00,,,0.00,Wunderground v.1.15,2013-05-03 06:40:00,
2013-05-02 23:45:00,53.2,20.0,29.61,SE,126,1.0,4.0,27,0.00,,,0.00,Wunderground v.1.15,2013-05-03 06:45:00,
2013-05-02 23:55:00,52.3,19.3,29.61,SE,126,0.0,1.0,27,0.00,,,0.00,Wunderground v.1.15,2013-05-03 06:55:00,